Weather History for LDPL - March, 2013

Change the Weather History Date:

Wednesday, March 20, 2013

  Actual Average Record
Temperature  
Mean Temperature 46 °F -  
Max Temperature 58 °F - - ()
Min Temperature 33 °F - - ()
Degree Days  
Heating Degree Days 20    
Moisture  
Dew Point 42 °F    
Average Humidity 78    
Maximum Humidity 100    
Minimum Humidity 42    
Precipitation  
Precipitation 0.12 in - - ()
Sea Level Pressure  
Sea Level Pressure 29.74 in    
Wind  
Wind Speed 3 mph ()    
Max Wind Speed 9 mph    
Max Gust Speed -    
Visibility 11.3 miles    
Events Rain    
T = Trace of Precipitation, MM = Missing Value Source: Averaged Metar Reports

Daily Weather History Graph

Daily Weather History Graph

Search for Another Location

Airport or City:

Trip Planner

Search our weather history database for the weather conditions in past years. The results will help you decide how hot, cold, wet, or windy it might be!

Date:

Astronomy

Mar. 20, 2013 Rise Set
Actual Time 6:07 AM CET 6:16 PM CET
Civil Twilight 5:38 AM CET 6:45 PM CET
Nautical Twilight 5:03 AM CET 7:20 PM CET
Astronomical Twilight 4:28 AM CET 7:55 PM CET
Moon 11:22 AM CET (3/20) 1:48 AM CET (3/20)
Length of Visible Light 13h 07m
Length of Day
12h 09m
First Quarter, 57% of the Moon is Illuminated
Mar 20
First Quarter
Mar 27
Full
Apr 3
Last Quarter
Apr 10
New
Apr 18
First Quarter

Hourly Weather History & Observations

Time (CET) Temp. Windchill Dew Point Humidity Pressure Visibility Wind Dir Wind Speed Gust Speed Precip Events Conditions
12:00 AM 39.2 °F - 37.4 °F 93% 29.74 in - Variable 1.2 mph - N/A   Clear
12:30 AM 37.4 °F - 35.6 °F 93% 29.74 in - Variable 1.2 mph - N/A   Clear
1:00 AM 36 °F - 34 °F 91% 29.77 in 19 mi Calm Calm - -  
1:00 AM 35.6 °F - 33.8 °F 93% 29.74 in - Calm Calm - N/A   Clear
1:30 AM 35.6 °F - 33.8 °F 93% 29.74 in - Variable 1.2 mph - N/A   Clear
2:00 AM 35.6 °F - 33.8 °F 93% 29.74 in - Variable 2.3 mph - N/A   Clear
2:30 AM 37.4 °F - 35.6 °F 93% 29.74 in - Variable 2.3 mph - N/A   Clear
3:00 AM 33.8 °F - 33.8 °F 100% 29.74 in - Variable 2.3 mph - N/A   Clear
3:30 AM 37.4 °F 33.8 °F 35.6 °F 93% 29.74 in - East 4.6 mph - N/A   Clear
4:00 AM 40 °F - 38 °F 90% 29.76 in 19 mi East 4.5 mph - -  
4:00 AM 39.2 °F 35.9 °F 37.4 °F 93% 29.74 in - East 4.6 mph - N/A   Clear
4:30 AM 35.6 °F 31.7 °F 33.8 °F 93% 29.74 in - East 4.6 mph - N/A   Clear
5:00 AM 35 °F - 33 °F 89% 29.77 in 19 mi ESE 2.2 mph - -  
5:00 AM 35.6 °F - 33.8 °F 93% 29.74 in - Variable 2.3 mph - N/A   Clear
5:30 AM 33.8 °F - 32.0 °F 93% 29.74 in - Variable 2.3 mph - N/A   Clear
6:00 AM 36 °F - 35 °F 93% 29.77 in 19 mi ESE 4.5 mph - -  
6:00 AM 35.6 °F 31.7 °F 35.6 °F 100% 29.74 in - ESE 4.6 mph - N/A   Clear
6:30 AM 37.4 °F 33.8 °F 35.6 °F 93% 29.74 in - ESE 4.6 mph - N/A   Clear
7:00 AM 39 °F - 37 °F 91% 29.78 in 19 mi East 4.5 mph - -   Clear
7:00 AM 39.2 °F 35.9 °F 37.4 °F 93% 29.74 in - East 4.6 mph - N/A   Clear
7:30 AM 46.4 °F - 46.4 °F 100% 29.74 in - Variable 2.3 mph - N/A   Clear
8:00 AM 53 °F - 48 °F 77% 29.78 in 19 mi ESE 2.2 mph - -   Clear
8:00 AM 51.8 °F - 48.2 °F 88% 29.77 in - Variable 1.2 mph - N/A   Clear
8:30 AM 53.6 °F - 44.6 °F 72% 29.77 in - Variable 2.3 mph - N/A   Clear
9:00 AM 53 °F - 45 °F 65% 29.78 in 19 mi East 6.7 mph - -   Scattered Clouds
9:00 AM 53.6 °F - 44.6 °F 72% 29.77 in 6.2 mi East 6.9 mph - N/A   Partly Cloudy
9:30 AM 53.6 °F - 44.6 °F 72% 29.77 in 6.2 mi East 6.9 mph - N/A   Partly Cloudy
10:00 AM 54 °F - 43 °F 55% 29.79 in 19 mi ESE 4.5 mph - -   Scattered Clouds
10:00 AM 53.6 °F - 42.8 °F 67% 29.77 in 6.2 mi ESE 4.6 mph - N/A   Partly Cloudy
10:30 AM 55.4 °F - 42.8 °F 63% 29.77 in 6.2 mi ESE 8.1 mph - N/A   Partly Cloudy
11:00 AM 56 °F - 43 °F 51% 29.79 in 19 mi ESE 2.2 mph - -   Scattered Clouds
11:00 AM 55.4 °F - 42.8 °F 63% 29.77 in 6.2 mi ESE 8.1 mph - N/A   Partly Cloudy
11:30 AM 57.2 °F - 42.8 °F 59% 29.77 in 6.2 mi SE 6.9 mph - N/A   Partly Cloudy
12:00 PM 58 °F - 41 °F 42% 29.78 in 19 mi South 6.7 mph - -   Scattered Clouds
12:00 PM 57.2 °F - 41.0 °F 55% 29.77 in 6.2 mi South 6.9 mph - N/A   Partly Cloudy
12:30 PM 57.2 °F - 41.0 °F 55% 29.77 in 6.2 mi SSE 6.9 mph - N/A   Partly Cloudy
1:00 PM 56 °F - 44 °F 53% 29.77 in 19 mi ESE 6.7 mph - -   Scattered Clouds
1:00 PM 57.2 °F - 42.8 °F 59% 29.77 in 6.2 mi ESE 6.9 mph - N/A   Partly Cloudy
1:30 PM 55.4 °F - 44.6 °F 67% 29.74 in 6.2 mi SE 8.1 mph - N/A   Partly Cloudy
2:00 PM 57 °F - 40 °F 42% 29.75 in 19 mi ESE 8.9 mph - -   Scattered Clouds
2:00 PM 57.2 °F - 41.0 °F 55% 29.74 in 6.2 mi ESE 8.1 mph - N/A   Partly Cloudy
2:30 PM 57.2 °F - 41.0 °F 55% 29.74 in 6.2 mi SE 8.1 mph - N/A   Partly Cloudy
3:00 PM 56 °F - 46 °F 60% 29.75 in 19 mi SE 8.9 mph - -   Overcast
3:00 PM 55.4 °F - 44.6 °F 67% 29.74 in 6.2 mi SE 8.1 mph - N/A   Partly Cloudy
3:30 PM 55.4 °F - 48.2 °F 77% 29.71 in 6.2 mi ESE 6.9 mph - N/A   Partly Cloudy
4:00 PM 54 °F - 46 °F 65% 29.73 in 19 mi East 4.5 mph - -   Overcast
4:00 PM 53.6 °F - 46.4 °F 77% 29.71 in - East 4.6 mph - N/A   Clear
4:30 PM 53.6 °F - 46.4 °F 77% 29.71 in - East 4.6 mph - N/A   Clear
5:00 PM 53 °F - 47 °F 73% 29.73 in 19 mi East 4.5 mph - -   Overcast
5:00 PM 53.6 °F - 46.4 °F 77% 29.71 in - East 4.6 mph - N/A   Clear
5:30 PM 53.6 °F - 46.4 °F 77% 29.71 in 6.2 mi Variable 2.3 mph - N/A   Partly Cloudy
6:00 PM 53 °F - 47 °F 72% 29.74 in 19 mi East 4.5 mph - -   Overcast
6:00 PM 53.6 °F - 46.4 °F 77% 29.71 in 6.2 mi Variable 1.2 mph - N/A   Partly Cloudy
6:30 PM 51.8 °F - 46.4 °F 82% 29.71 in 6.2 mi Variable 1.2 mph - N/A   Partly Cloudy
7:00 PM 51 °F - 46 °F 76% 29.74 in 19 mi North 2.2 mph - - Rain Light Rain
7:00 PM 51.8 °F - 46.4 °F 82% 29.71 in 6.2 mi Variable 2.3 mph - N/A   Scattered Clouds
7:30 PM 50.0 °F - 46.4 °F 87% 29.71 in 6.2 mi ENE 4.6 mph - N/A Rain Light Rain
8:00 PM 50.0 °F - 46.4 °F 87% 29.71 in 6.2 mi ENE 8.1 mph - N/A Rain Light Rain
8:30 PM 50.0 °F - 44.6 °F 82% 29.71 in 6.2 mi NE 6.9 mph - N/A   Mostly Cloudy
9:00 PM 50.0 °F - 42.8 °F 76% 29.71 in 6.2 mi ENE 4.6 mph - N/A   Mostly Cloudy
9:30 PM 48.2 °F - 42.8 °F 82% 29.71 in 6.2 mi Variable 3.5 mph - N/A Rain Light Rain
10:00 PM 47 °F - 44 °F 85% 29.74 in 16 mi Calm Calm - - Rain Light Rain
10:00 PM 46.4 °F - 44.6 °F 93% 29.71 in 6.2 mi Variable 1.2 mph - N/A Rain Light Rain
10:30 PM 46.4 °F - 44.6 °F 93% 29.71 in 6.2 mi Variable 2.3 mph - N/A Rain Light Rain
11:00 PM 46.4 °F 43.5 °F 44.6 °F 93% 29.71 in 6.2 mi NE 5.8 mph - N/A Rain Light Rain
11:30 PM 46.4 °F 45.2 °F 44.6 °F 93% 29.71 in 6.2 mi Variable 3.5 mph - N/A Rain Light Rain